Date String (YYYY-MM-DD hh:mm:ss) UTC,Instrument flags,Ambient pressure (hPa),Sample flow (lpm),Bypass flow (lpm),Sample temperature (°C),Ambient temperature (°C),ASC tube jacket temperature (°C),LED temperature (°C),Box temperature (°C),Sample RH (%),Span deviation,Mass concentration (μg/m³),Mass concentration (μg/m³),Mass concentration (μg/m³)
DateTimeUTC,F1_M11,P_M11,Q1_M11,Q2_M11,T1_M11,T2_M11,T3_M11,T4_M11,T5_M11,U1_M11,ZSPAN_M11,X0_M11,X2_M11,X1_M11
2022-04-12 04:00:00,,0804.9,5.02,0.00,28.6,27.7,00.0,37.7,30.3,07.9,0000.0,0022.65,0005.89,0002.50
2022-04-12 04:01:00,,0804.9,4.99,0.00,28.6,27.7,00.0,37.6,30.4,08.0,0000.0,0024.19,0005.90,0002.50
2022-04-12 04:02:00,,0804.9,5.02,0.00,28.6,27.7,00.0,37.6,30.4,07.8,0000.0,0025.67,0005.96,0002.53
2022-04-12 04:03:00,,0804.8,5.00,0.00,28.6,27.7,00.0,37.6,30.4,07.7,0000.0,0024.29,0005.90,0002.55
2022-04-12 04:04:00,,0804.8,4.99,0.00,28.6,27.6,00.0,37.6,30.3,07.6,0000.0,0023.27,0005.88,0002.55
2022-04-12 04:05:00,,0804.7,5.01,0.00,28.6,27.6,00.0,37.6,30.4,07.7,0000.0,0022.13,0005.85,0002.57
2022-04-12 04:06:00,,0804.7,4.98,0.00,28.6,27.6,00.0,37.6,30.3,07.8,0000.0,0022.15,0005.83,0002.56
2022-04-12 04:07:00,,0804.6,5.00,0.00,28.6,27.6,00.0,37.6,30.3,07.9,0000.0,0023.30,0005.89,0002.57
2022-04-12 04:08:00,,0804.6,4.99,0.00,28.6,27.6,00.0,37.6,30.3,08.0,0000.0,0024.89,0005.95,0002.59
2022-04-12 04:09:00,,0804.7,5.02,0.00,28.6,27.6,00.0,37.6,30.3,08.0,0000.0,0025.13,0006.02,0002.58
2022-04-12 04:10:00,,0804.7,4.99,0.00,28.5,27.5,00.0,37.6,30.3,08.0,0000.0,0026.21,0006.08,0002.57
2022-04-12 04:11:00,,0804.7,5.02,0.00,28.5,27.5,00.0,37.6,30.3,07.8,0000.0,0027.26,0006.13,0002.58
2022-04-12 04:12:00,,0804.7,5.00,0.00,28.5,27.5,00.0,37.6,30.3,07.9,0000.0,0026.07,0006.15,0002.61
2022-04-12 04:13:00,,0804.7,4.99,0.00,28.5,27.5,00.0,37.6,30.2,08.1,0000.0,0024.44,0006.13,0002.61
2022-04-12 04:14:00,,0804.7,5.01,0.00,28.5,27.5,00.0,37.6,30.3,08.1,0000.0,0024.47,0006.15,0002.63
2022-04-12 04:15:00,,0804.7,4.99,0.00,28.5,27.5,00.0,37.6,30.3,08.0,0000.0,0024.60,0006.16,0002.64
2022-04-12 04:16:00,,0804.7,5.01,0.00,28.5,27.5,00.0,37.5,30.2,08.0,0000.0,0024.35,0006.11,0002.63
2022-04-12 04:17:00,,0804.6,4.99,0.00,28.5,27.5,00.0,37.5,30.2,08.1,0000.0,0024.49,0006.07,0002.63
2022-04-12 04:18:00,,0804.6,5.02,0.00,28.5,27.5,00.0,37.5,30.2,08.1,0000.0,0025.17,0006.00,0002.61
2022-04-12 04:19:00,,0804.5,4.98,0.00,28.5,27.5,00.0,37.5,30.2,08.2,0000.0,0024.59,0005.98,0002.62
2022-04-12 04:20:00,,0804.5,5.01,0.00,28.5,27.5,00.0,37.5,30.2,08.2,0000.0,0024.65,0005.97,0002.65
2022-04-12 04:21:00,,0804.5,5.00,0.00,28.5,27.5,00.0,37.5,30.2,08.2,0000.0,0024.09,0005.98,0002.65
2022-04-12 04:22:00,,0804.4,5.00,0.00,28.5,27.5,00.0,37.5,30.2,08.1,0000.0,0024.22,0005.97,0002.67
2022-04-12 04:23:00,,0804.4,4.99,0.00,28.5,27.5,00.0,37.5,30.2,08.1,0000.0,0024.32,0005.96,0002.65
2022-04-12 04:24:00,,0804.3,5.01,0.00,28.5,27.5,00.0,37.5,30.2,08.0,0000.0,0025.80,0006.09,0002.67
2022-04-12 04:25:00,,0804.3,4.98,0.00,28.5,27.5,00.0,37.5,30.2,08.0,0000.0,0026.34,0006.07,0002.66
2022-04-12 04:26:00,,0804.2,5.01,0.00,28.5,27.5,00.0,37.5,30.2,08.0,0000.0,0026.09,0006.03,0002.67
2022-04-12 04:27:00,,0804.3,5.00,0.00,28.4,27.5,00.0,37.5,30.2,08.1,0000.0,0026.33,0006.03,0002.66
2022-04-12 04:28:00,,0804.2,4.99,0.00,28.4,27.4,00.0,37.5,30.2,08.0,0000.0,0026.54,0006.08,0002.65
2022-04-12 04:29:00,,0804.2,5.02,0.00,28.4,27.4,00.0,37.5,30.2,07.8,0000.0,0025.23,0006.17,0002.64
2022-04-12 04:30:00,,0804.2,5.00,0.00,28.4,27.4,00.0,37.5,30.2,07.7,0000.0,0024.89,0006.10,0002.62
2022-04-12 04:31:00,,0804.1,5.00,0.00,28.4,27.4,00.0,37.5,30.2,07.9,0000.0,0024.76,0006.03,0002.59
2022-04-12 04:32:00,,0804.1,5.00,0.00,28.4,27.4,00.0,37.5,30.2,08.0,0000.0,0025.14,0006.03,0002.59
2022-04-12 04:33:00,,0804.1,5.01,0.00,28.4,27.4,00.0,37.5,30.1,08.0,0000.0,0024.67,0006.04,0002.59
2022-04-12 04:34:00,,0804.1,4.99,0.00,28.4,27.4,00.0,37.5,30.1,08.1,0000.0,0024.42,0006.05,0002.58
2022-04-12 04:35:00,,0804.1,5.01,0.00,28.4,27.4,00.0,37.5,30.1,08.1,0000.0,0023.57,0005.98,0002.56
2022-04-12 04:36:00,,0804.1,5.00,0.00,28.4,27.4,00.0,37.4,30.1,07.9,0000.0,0023.54,0005.98,0002.55
2022-04-12 04:37:00,,0804.1,4.99,0.00,28.4,27.4,00.0,37.4,30.1,07.9,0000.0,0024.72,0006.05,0002.54
2022-04-12 04:38:00,,0804.1,5.00,0.00,28.4,27.4,00.0,37.4,30.1,08.0,0000.0,0025.82,0006.07,0002.55
2022-04-12 04:39:00,,0804.1,5.00,0.00,28.4,27.4,00.0,37.4,30.1,08.0,0000.0,0025.66,0006.11,0002.55
2022-04-12 04:40:00,,0804.1,4.99,0.00,28.4,27.4,00.0,37.4,30.1,08.1,0000.0,0027.71,0006.11,0002.57
2022-04-12 04:41:00,,0804.1,5.00,0.00,28.4,27.4,00.0,37.4,30.1,08.0,0000.0,0028.52,0006.17,0002.59
2022-04-12 04:42:00,,0804.1,5.02,0.00,28.4,27.4,00.0,37.4,30.1,08.2,0000.0,0027.79,0006.12,0002.59
2022-04-12 04:43:00,,0804.1,4.99,0.00,28.4,27.4,00.0,37.4,30.1,08.2,0000.0,0027.17,0006.05,0002.59
2022-04-12 04:44:00,,0804.1,5.00,0.00,28.3,27.4,00.0,37.4,30.1,08.2,0000.0,0027.97,0006.09,0002.61
2022-04-12 04:45:00,,0804.1,5.01,0.00,28.3,27.4,00.0,37.4,30.1,08.4,0000.0,0028.02,0006.10,0002.62
2022-04-12 04:46:00,,0804.1,4.99,0.00,28.3,27.4,00.0,37.4,30.1,08.5,0000.0,0028.45,0006.10,0002.63
2022-04-12 04:47:00,,0804.1,5.00,0.00,28.3,27.3,00.0,37.4,30.1,08.4,0000.0,0029.27,0006.10,0002.63
2022-04-12 04:48:00,,0804.1,4.99,0.00,28.3,27.3,00.0,37.4,30.0,08.5,0000.0,0028.09,0006.09,0002.64
2022-04-12 04:49:00,,0804.1,5.01,0.00,28.3,27.3,00.0,37.4,30.0,08.5,0000.0,0026.90,0006.03,0002.64
2022-04-12 04:50:00,,0804.3,4.99,0.00,28.3,27.3,00.0,37.4,30.0,08.5,0000.0,0026.01,0005.95,0002.65
2022-04-12 04:51:00,,0804.2,5.00,0.00,28.3,27.3,00.0,37.3,30.0,08.4,0000.0,0024.57,0005.89,0002.66
2022-04-12 04:52:00,,0804.1,5.01,0.00,28.3,27.3,00.0,37.3,30.0,08.3,0000.0,0023.48,0005.83,0002.63
2022-04-12 04:53:00,,0804.1,4.99,0.00,28.3,27.3,00.0,37.3,30.0,08.0,0000.0,0024.60,0005.94,0002.63
2022-04-12 04:54:00,,0804.1,5.00,0.00,28.3,27.3,00.0,37.3,30.0,07.7,0000.0,0024.46,0006.03,0002.62
2022-04-12 04:55:00,,0804.1,5.01,0.00,28.3,27.3,00.0,37.3,30.0,08.2,0000.0,0023.86,0006.03,0002.58
2022-04-12 04:56:00,,0804.1,5.00,0.00,28.3,27.3,00.0,37.3,30.0,08.8,0000.0,0023.62,0006.06,0002.54
2022-04-12 04:57:00,,0804.1,5.00,0.00,28.3,27.3,00.0,37.3,30.0,09.2,0000.0,0023.51,0005.98,0002.55
2022-04-12 04:58:00,,0804.0,4.99,0.00,28.2,27.2,00.0,37.3,30.0,09.7,0000.0,0021.33,0005.93,0002.54
2022-04-12 04:59:00,,0804.0,5.01,0.00,28.2,27.2,00.0,37.3,29.9,09.9,0000.0,0021.24,0005.85,0002.52
